CHUANGXIN 16B (CX-16B) (53876 NORAD) Tracking and Keplerian Element Data

This shows tracking and keplerian element data for the satellite.

Feedback or suggestion? Click here.




ElementValue
Catalog53876
NameCHUANGXIN 16B (CX-16B)
Epoch Orbit928
Epoch Day324.86974443
Epoch Year2022
RAAN152.9508
Inclination28.9968
Eccentricity0.0004992
Argument of Perigee94.6812
Mean Anonmoly265.4354
Mean Motion14.92356326
Decay Rate3.533E-05
L11 53876U 22102B 22324.86974443 .00003533 00000+0 32457-3 0 9991
L22 53876 28.9968 152.9508 0004992 94.6812 265.4354 14.92356326 9286



Live tracking and technical data element details for CHUANGXIN 16B (CX-16B) (NORAD 53876). CHUANGXIN 16B (CX-16B) can be tracked NOW for your location showing map with azimuth and elevation plus other details from your city location.







IsCatalogInMostPopularTable: catalog: 53876, numindb: -1

Insert: records affected: 1


GetName: 53876 CHUANGXIN 16B (CX-16B)

Hit Count: inserted at: Thu, 08 Dec 2022 10:19:53 GMT